Miscellaneous Local Product
Issued by NWS Hastings, NE

Home | Current Version | Previous Version | Text Only | Print | Product List | Glossary On
Versions: 1 2 3 4 5 6 7 8 9 10 11 12 13 14 15 16 17 18 19 20 21 22 23 24 25 26 27 28 29 30 31 32 33 34 35 36 37 38 39 40 41 42 43 44 45 46 47 48 49 50
000
AXUS43 KGID 182302
MISGRI

GID CWA HOURLY WEATHER ROUNDUP
NATIONAL WEATHER SERVICE HASTINGS NE
500 PM CST THU DEC 18 2014

NOTE: "FAIR" INDICATES FEW OR NO CLOUDS BELOW 12,000 FEET WITH NO
SIGNIFICANT WEATHER AND/OR OBSTRUCTIONS TO VISIBILITY.

...SOUTH CENTRAL NEBRASKA...

CITY           SKY/WX    TMP DP  RH WIND       PRES   REMARKS
GRAND ISLAND   CLOUDY    30  25  81 SW3       30.15F
HASTINGS       CLOUDY    30  25  81 W5        30.14S WCI  25
KEARNEY        CLOUDY    28  23  80 SW7       30.13F WCI  21
ORD            CLOUDY    28  23  81 S5        30.12  WCI  23
YORK           CLOUDY    28  27  93 S3        30.18R
AURORA         CLOUDY    30  27  87 CALM      30.16S
LEXINGTON      CLOUDY    30  27  88 SW3       30.11S
HOLDREGE       CLOUDY    29  25  85 W7        30.12S WCI  22
HEBRON         CLOUDY    31  25  80 CALM      30.18S

...NEBRASKA PANHANDLE...

CITY           SKY/WX    TMP DP  RH WIND       PRES   REMARKS
CHADRON        CLEAR     29  21  72 SW7       30.02R WCI  22
ALLIANCE       CLEAR     26  21  81 W7        30.00S WCI  18
SCOTTSBLUFF    MOCLDY    18  15  88 CALM      30.03S FOG
SIDNEY         MOCLDY    33  24  69 W7        30.04R WCI  27

...WESTERN AND NORTH CENTRAL NEBRASKA...

CITY           SKY/WX    TMP DP  RH WIND       PRES   REMARKS
VALENTINE      CLEAR     24  20  84 S5        30.06R WCI  18
AINSWORTH      CLOUDY    26  24  95 SW3       30.06S FOG
ONEILL         CLOUDY    29  26  91 CALM      30.12S
BROKEN BOW     CLOUDY    30  26  85 SW7       30.09R WCI  23
IMPERIAL       MOCLDY    28  25  88 CALM      30.07S
NORTH PLATTE   CLOUDY    28  25  88 SW8       30.08S FOG     WCI  20
MCCOOK         CLOUDY    29  26  89 CALM      30.10S

...EASTERN NEBRASKA...

CITY           SKY/WX    TMP DP  RH WIND       PRES   REMARKS
NORFOLK        CLOUDY    29  24  82 S5        30.16S WCI  24
SO SIOUX CITY  CLOUDY    31  24  75 SE7       30.21R WCI  24
TEKAMAH        CLOUDY    31  26  82 SE6       30.22R WCI  25
COLUMBUS       CLOUDY    30  21  69 S5        30.19S WCI  25
ALBION         CLOUDY    28  24  82 S3        30.15S
OMAHA EPPLEY   CLOUDY    31  26  82 S3        30.23R
OFFUTT AFB     CLOUDY    31  26  84 SE3       30.22R
MILLARD        CLOUDY    32  26  80 S3        30.21S
LINCOLN        CLOUDY    32  26  78 CALM      30.21R
NEBRASKA CITY  CLOUDY    30  28  92 CALM      30.21R
BEATRICE       CLOUDY    31  28  86 CALM      30.19S
FALLS CITY     CLOUDY    30  26  85 E3        30.21S

...NORTHERN KANSAS...

CITY           SKY/WX    TMP DP  RH WIND       PRES   REMARKS
GOODLAND       CLEAR     38  30  73 N6        30.07R WCI  33
HILL CITY      CLOUDY    32  27  81 NW5       30.14R WCI  27
NORTON         CLOUDY    30  25  80 SW5       30.12S WCI  25
PHILLIPSBURG   CLOUDY    36  28  75 CALM      30.15S
SMITH CENTER   CLOUDY    30  27  86 CALM      30.17S
BELOIT         CLOUDY    28  27  93 CALM      30.18S
HAYS           CLOUDY    34  21  60 CALM      30.15R
RUSSELL        CLOUDY    31  28  89 E5        30.14S WCI  26
CONCORDIA      CLOUDY    30  27  88 CALM      30.18S
SALINA         CLOUDY    32  27  81 NW6       30.20S WCI  26
TOPEKA         CLOUDY    33  30  88 N6        30.21S WCI  28



USA.gov is the U.S. government's official web portal to all federal, state and local government web resources and services.